Location: Launois
(49.6535°N, 4.5395°E)
Time: 00:00:57
(UTC+00:00)

CZ-2D R/B - Pass Details

Date: 13 August 2024
Orbit: 790 x 842 km, 98.8° (Epoch: 07 September)

Event Time Altitude Azimuth Distance (km) Brightness Sun altitude
Rises 03:49:03 0° 3° (N) 3,329 5.8 -6.7°
Reaches altitude 10° 03:52:19 10° 342° (NNW) 2,403 4.8 -6.2°
Maximum altitude 03:55:17 15° 307° (NW) 2,053 4.0 -5.8°
Drops below altitude 10° 03:58:16 10° 273° (W) 2,415 4.1 -5.4°
Enters shadow 04:00:08 - 259° (W) 2,905 4.4 -5.2°
